User: anonymous   Login
Location: Unspecified
(0.0000°N, 0.0000°E)
Time: 22:56:20
(UTC+00:00)
Language:

APRIZESAT 3 - Orbit

View from above orbital plane
View from above orbital plane
View from above satellite
View from above satellite

Ground track
Ground track

The orbit data is extracted from the following two-line orbital elements,

1 35686U 09041F   15109.85900935  .00002196  00000-0  24399-3 0  9995
2 35686 098.1913 069.2907 0075728 059.9170 300.9525 14.86233283309909
Epoch (UTC): 19 April 2015 20:36:58
Eccentricity: 0.0075728
inclination: 98.1913°
perigee height: 557 km
apogee height: 662 km
right ascension of ascending node: 69.2907°
argument of perigee: 59.9170°
revolutions per day: 14.86233283
mean anomaly at epoch: 300.9525°
orbit number at epoch: 30990

The dashed part of the orbit path shows where the satellite is in the earth's shadow,  

DLR